Weather in Lyagushye

Russia / Novosibirsk Oblast     54°24′07″N   77°59′24″E
temp.,
°C
wind,
m/s
gust,
m/s
humid.,
%
clouds,
%
prec.,
mm/h
press.,
hPa
HPBL,
m
28 february, sun
sun2801:00−29s449912 0.0 103643
04:00−29sse459850 0.0 103458
07:00−29se459447 0.0 103361
10:00−26se5109293 0.0 1031201
13:00−21se699297 0.0 1028268
16:00−17ese61095100 0.1 1025368
19:00−15ese51093100 0.3 1021356
22:00−13e6995100 0.1 1018229
1 march, mon
mon101:00−10e61095100 0.6 1014268
04:00−7e61095100 1.4 1010316
07:00−6ene6995100 2.9 1007243
10:00−6ene5796100 0.6 1005202
13:00−3ene3497100 2.4 1005153
16:00−3nne3498100 2.1 1005185
19:00−6n469699 2.9 1007158
22:00−10n359596 0.4 1009138
2 march, tue
tue201:00−14nnw349690 0.5 101254
04:00−16nw339693 0.1 101553
07:00−18nw239890 0.1 101722
10:00−19w239897 0.0 101830
13:00−16sw239297 0.1 1018240
16:00−13sw2390100 0.1 1018331
19:00−14ssw229699 0.1 101738
22:00−15s1296100 0.1 101620
3 march, wed
wed301:00−15s129699 0.3 101621
04:00−16ssw119797 0.1 101520
07:00−16sw119699 0.4 101620
10:00−15wsw229699 0.2 101688
13:00−13wsw339190 0.2 1018318
16:00−12wsw3590100 0.0 1019416
19:00−15ssw3495100 0.0 102036
22:00−18ssw459788 0.0 102068
4 march, thu
thu401:00−18s589590 0.0 1021150
04:00−15s5109497 0.0 1019230
07:00−16s5109398 0.0 1019194
10:00−14s61191100 0.0 1017269
13:00−11sse71288100 0.0 1015360
16:00−8sse81288100 0.0 1013430
19:00−8sse71386100 0.0 1011352
22:00−8sse61388100 0.0 1009273